Regional Weather Roundup
Issued by NWS Charleston, SC

Current Version | Previous Version | Graphics & Text | Print | Product List | Glossary On
Versions: 1 2 3 4 5 6 7 8 9 10 11 12 13 14 15 16 17 18 19 20 21 22 23 24 25 26 27 28 29 30 31 32 33 34 35 36 37 38 39 40 41 42 43 44 45 46 47 48 49 50
000
ASUS42 KCHS 041227
RWRCHS

REGIONAL WEATHER ROUNDUP
NATIONAL WEATHER SERVICE CHARLESTON SC
700 AM EST SUN DEC 04 2016

NOTE: "FAIR" INDICATES FEW OR NO CLOUDS BELOW 12,000 FEET WITH NO
SIGNIFICANT WEATHER AND/OR OBSTRUCTIONS TO VISIBILITY.

NOT ALL STATIONS ARE QUALITY CONTROLLED. USE DATA WITH CAUTION...
ESPECIALLY DEWPOINT OBSERVATIONS.

SCZ027-030-031-034>040-042>050-041300-
...SOUTHEAST SOUTH CAROLINA...

CITY           SKY/WX    TMP DP  RH WIND       PRES   REMARKS
N CHARLESTON   CLOUDY    50  37  61 NE12      30.22R
6HR MIN TEMP:  49; 6HR MAX TEMP:  51; 6HR PCP: TRACE;

WATERFRONT PRK   N/A     52  44  74 NE10      30.21S
MOUNT PLEASANT CLOUDY    48  39  71 N6        30.23S
JOHNS ISLAND   CLOUDY    52  41  66 N6        30.21S
PINOPOLIS        N/A     50  39  66 NE13      30.17R
MONCKS CORNER  CLOUDY    48  34  57 NE10      30.23F
SUMMERVILLE    CLOUDY    50  41  71 NE5       30.22F
BEAUFORT MCAS  CLOUDY    51  40  65 NE7       30.19S
6HR MIN TEMP:  51; 6HR MAX TEMP:  54;

BEAUFORT ARPT  CLOUDY    52  43  71 NE13G18   30.18F
HILTON HEAD IS CLOUDY    52  46  82 NE12      30.16F
WALTERBORO     CLOUDY    52  36  54 NE8       30.21F
ALLENDALE      CLOUDY    50  36  57 CALM      30.20S

...SOUTHERN MIDLANDS AND PEE DEE...

CITY           SKY/WX    TMP DP  RH WIND       PRES   REMARKS
GEORGETOWN     NOT AVBL
KINGSTREE      CLOUDY    45  37  76 CALM      30.26F
ORANGEBURG     CLOUDY    49  37  63 NE7       30.23R
6HR MIN TEMP:  48; 6HR MAX TEMP:  49;

BARNWELL       NOT AVBL
AIKEN          CLOUDY    45  39  81 NE6       30.25R
MANNING        NOT AVBL
COLUMBIA       CLOUDY    49  42  77 E6        30.24S
6HR MIN TEMP:  48; 6HR MAX TEMP:  50; 6HR PCP:  0.01;

SUMTER         CLOUDY    46  42  86 E6        30.23F
6HR MIN TEMP:  46; 6HR MAX TEMP:  48; 6HR PCP: TRACE;

FLORENCE       LGT RAIN  46  40  79 NE7       30.28R
6HR MIN TEMP:  46; 6HR MAX TEMP:  48; 6HR PCP: TRACE;

MYRTLE BEACH   CLOUDY    48  36  61 NE9       30.28R
N MYRTLE BEACH CLOUDY    47  37  68 N6        30.26R
6HR MIN TEMP:  47; 6HR MAX TEMP:  48;


$$

GAZ063-065-086>088-099>101-113>116-118-119-134>141-150-041300-
...SOUTHEAST GEORGIA...

CITY           SKY/WX    TMP DP  RH WIND       PRES   REMARKS
SAVANNAH ARPT  CLOUDY    52  42  69 NE10      30.17S
6HR MIN TEMP:  51; 6HR MAX TEMP:  54;

HUNTER AAF     CLOUDY    53  48  85 NE6       30.13S
6HR MIN TEMP:  53; 6HR MAX TEMP:  55;

FORT STEWART   MOCLDY    51  44  76 NE5       30.12S
6HR MIN TEMP:  50; 6HR MAX TEMP:  53;

STATESBORO     CLOUDY    52  42  71 CALM      30.19R
SYLVANIA       CLOUDY   N/A N/A N/A E5        30.20R
CLAXTON        CLOUDY    53  45  75 NE8       30.17R

...CSRA...CENTRAL AND FAR SOUTHEAST GEORGIA...

CITY           SKY/WX    TMP DP  RH WIND       PRES   REMARKS
THOMSON        CLOUDY    49  45  84 E5        30.23F
AUGUSTA-BUSH   CLOUDY    51  41  68 E7        30.20S
6HR MIN TEMP:  50; 6HR MAX TEMP:  51;

AUGUSTA-DANIEL CLOUDY    50  38  63 NE8       30.21S
SWAINSBORO     CLOUDY    52  36  54 E7        30.18R
VIDALIA        CLOUDY    54  46  76 NE8       30.15S
EASTMAN        CLOUDY    54  35  48 E6        30.16S
HAZLEHURST     PTSUNNY   54  47  79 E6        30.12S
ALMA           CLOUDY    51  46  83 NE3       30.11S
6HR MIN TEMP:  51; 6HR MAX TEMP:  54;

WAYCROSS       PTCLDY    56  54  91 E7        30.11R
JESUP          CLOUDY    55  52  88 E6        30.12S
BAXLEY         FAIR      54  50  87 CALM      30.13R
BRUNSWICK      CLOUDY    63  57  82 E8        30.11S
SAINT SIMONS   MOCLDY    64  56  75 E13       30.10F
6HR MIN TEMP:  60; 6HR MAX TEMP:  64;


$$

SCZ027-028-034-036>038-045-046-048>050-GAZ119-141-041300-
...LAKE AND SUPPLEMENTAL COASTAL OBSERVATIONS...

STATION/POSITION TIME  TEMP    WIND        PRES    WAVE   SWELL
                       AIR SEA DIR/SP/G            HT/PER HT/PER/DIR
                 (UTC) (F)     (DEG/KT/KT) (MB)    (FT/S) (FT/S/D)
WINYAH BAY       1145   48      10/  6     1024.0R
LAKE MURRAY      1150   46      40/  2/  6 1023.7R
ACE BASIN NERRS  1145   50      20/  3     1022.0S
FORT PULASKI     1200   56 62   50/ 11/ 14 1021.3
SAPELO ISLAND    1200   63      80/  8     1020.0

$$

ANZ835-935-AMZ111-154-330-350-352-354-370-450-454-472-041300-
...C-MAN AND BUOY OBSERVATIONS...

STATION/POSITION TIME  TEMP    WIND        PRES    WAVE   SWELL
                       AIR SEA DIR/SP/G            HT/PER HT/PER/DIR
                 (UTC) (F)     (DEG/KT/KT) (MB)    (FT/S) (FT/S/D)
BUOY 41004       1150   62 74   50/ 10/ 14 1022.1R   3/ 8   2/100/ 8
BUOY 41008       1150   66 64   90/ 14/ 16 1020.2F   4/ 5   2/110/ 7
FOLLY BEACH CMAN 1200   53      30/ 15/ 18 1023.4R
CAPERS NEARSHORE 1108   53 62   30/ 12/ 16 1022.8F
FRIPP NEARSHORE  1208   57 62   60/ 16/ 21 1021.7F


STATION/POSITION TIME  TEMP    WIND        PRES    WAVE   SWELL
                       AIR SEA DIR/SP/G            HT/PER HT/PER/DIR
                 (UTC) (F)     (DEG/KT/KT) (MB)    (FT/S) (FT/S/D)
5E ST. MARYS GA  1200      65                N/A     4/ 5
FRYING PAN BUOY  1200   60 74   50/ 12/ 17 1023.0
BUOY 41025       1150   54 76   20/ 14/ 19 1023.7R   6/ 9   5/ 50/ 9
CAPE LOOKOUT NC  1200   49      10/  9/ 11 1024.4R
BUOY 41002       1150   64 73   50/ 10/ 14 1021.4R   5/ 9   5/ 30/ 9
BUOY 41010       NOT AVBL
ST AUGUSTINE FL  1200   68 66  120/ 10/ 10 1020.2F


$$



USA.gov is the U.S. government's official web portal to all federal, state and local government web resources and services.